Погода в Плаценсии

Белиз     16°31′08″N   88°22′09″W
темп.,
°C
ветер,
м/с
пор.,
м/с
влажн.,
%
обл.,
%
осадки,
мм/ч
давл.,
гПа
погр.,
м
28 октября, чт
чт2800:00+29юв44756 0.0 1008583
03:00+29зсз11755 0.0 1007313
06:00+28сз218050 0.0 1009261
09:00+28з12805 0.0 1011246
12:00+29ююв337912 0.0 1010298
15:00+29всв337652 0.4 1008327
18:00+30ссв457778 3.1 1008183
21:00+29с337997 1.8 101080
29 октября, пт
пт2900:00+28зсз5483100 7.2 1010136
03:00+27з338292 2.3 1010165
06:00+26з3385100 6.4 1012134
09:00+26ссз7782100 9.3 1015612
12:00+24ссз81084100 13.6 1014571
15:00+25ссз4575100 1.1 1013703
18:00+25зсз237099 1.1 1014542
21:00+26юз447195 0.0 1015502
30 октября, сб
сб3000:00+25зюз667535 0.0 1015361
03:00+25ссз567425 0.0 1014387
06:00+25сз56685 0.0 1015498
09:00+25зсз226611 0.0 1017420
12:00+26юв32631 0.0 1014409
15:00+26вюв326216 0.0 1012599
18:00+27вюв22610 0.0 1013495
21:00+27юв22612 0.0 1015646
31 октября, вс
вс3100:00+26юз336820 0.0 1014515
03:00+25зсз327570 0.0 1013264
06:00+24сз227745 0.0 1014262
09:00+25ссз21743 0.0 1016308
12:00+26всв337535 0.0 1015555
15:00+27всв557371 0.1 1013769
18:00+27всв6670100 0.1 1014918
21:00+28в5565100 0.1 10161195
1 ноября, пн
пн100:00+28всв4464100 0.1 10151155
03:00+27св3465100 0.1 10141081
06:00+27ссв33655 0.1 1015997
09:00+28св336139 0.0 1017937
12:00+28св45625 0.1 10151140
15:00+28св666442 0.1 10131251
18:00+28св8766100 0.1 10151295
21:00+28св7765100 0.1 10161301